Tracking 23610 objects as of 20-Sep-2021
HD Live streaming from Space Station
objects crossing your sky now

STARLINK-1990

Track STARLINK-1990 now!
10-day predictions
STARLINK-1990 is classified as:


NORAD ID: 47586
Int'l Code: 2021-009AQ
Perigee: 553.0 km
Apogee: 555.7 km
Inclination: 53.1 °
Period: 95.6 minutes
Semi major axis: 6925 km
RCS: Unknown
Launch date: February 4, 2021
Source: United States (US)
Launch site: AIR FORCE EASTERN TEST RANGE (AFETR)
aabbcc
Your satellite tracking list
Your tracking list is empty




NASA's NSSDC Master Catalog

Two Line Element Set (TLE):
1 47586U 21009AQ  21262.87373633  .00001275  00000-0  10447-3 0  9999
2 47586  53.0550 167.1159 0001911  69.5336 290.5858 15.06395742 34561
Source of the keplerian elements: AFSPC